Time,TemperatureF,DewpointF,PressureIn,WindDirection,WindDirectionDegrees,WindSpeedMPH,WindSpeedGustMPH,Humidity,HourlyPrecipIn,Conditions,Clouds,dailyrainin,SoftwareType,DateUTC
2013-10-06 00:00:00,65.8,26.7,30.13,NW,315,5.8,6.5,22,0.00,,,0.00,tws,2013-10-06 07:00:00,
2013-10-06 00:10:00,65.7,26.9,30.13,NW,315,5.9,7.2,22,0.00,,,0.00,tws,2013-10-06 07:10:00,
2013-10-06 00:20:00,65.6,27.0,30.13,NW,315,4.9,6.4,23,0.00,,,0.00,tws,2013-10-06 07:20:00,
2013-10-06 00:30:00,65.4,26.6,30.13,North,0,4.0,5.5,22,0.00,,,0.00,tws,2013-10-06 07:30:00,
2013-10-06 00:40:00,65.0,26.7,30.13,NW,315,2.5,4.1,23,0.00,,,0.00,tws,2013-10-06 07:40:00,
2013-10-06 00:50:00,64.6,26.3,30.14,WNW,292,3.0,5.2,23,0.00,,,0.00,tws,2013-10-06 07:50:00,
2013-10-06 01:00:00,64.3,26.4,30.14,NNW,337,4.8,9.0,23,0.00,,,0.00,tws,2013-10-06 08:00:00,
2013-10-06 01:10:00,64.4,26.6,30.13,North,0,2.2,8.2,23,0.00,,,0.00,tws,2013-10-06 08:10:00,
2013-10-06 01:20:00,64.4,26.9,30.13,NW,315,0.5,2.5,23,0.00,,,0.00,tws,2013-10-06 08:20:00,
2013-10-06 01:30:00,63.9,26.4,30.14,NW,315,1.3,2.6,23,0.00,,,0.00,tws,2013-10-06 08:30:00,
2013-10-06 01:40:00,63.3,26.9,30.14,NW,315,2.3,4.6,24,0.00,,,0.00,tws,2013-10-06 08:40:00,
2013-10-06 01:50:00,62.7,26.6,30.13,NW,315,0.5,1.9,25,0.00,,,0.00,tws,2013-10-06 08:50:00,
2013-10-06 02:00:00,62.2,26.5,30.13,West,270,2.1,2.8,25,0.00,,,0.00,tws,2013-10-06 09:00:00,
2013-10-06 02:10:00,61.7,26.2,30.12,NW,315,3.0,4.0,25,0.00,,,0.00,tws,2013-10-06 09:10:00,
2013-10-06 02:20:00,61.3,25.3,30.12,NW,315,4.2,5.0,24,0.00,,,0.00,tws,2013-10-06 09:20:00,
2013-10-06 02:30:00,61.4,25.7,30.13,West,270,2.3,3.9,25,0.00,,,0.00,tws,2013-10-06 09:30:00,
2013-10-06 02:40:00,61.3,25.9,30.13,NE,45,3.0,4.4,25,0.00,,,0.00,tws,2013-10-06 09:40:00,
2013-10-06 02:50:00,61.1,26.2,30.13,North,0,1.1,4.5,26,0.00,,,0.00,tws,2013-10-06 09:50:00,
2013-10-06 03:00:00,60.7,26.2,30.12,North,0,0.6,2.4,26,0.00,,,0.00,tws,2013-10-06 10:00:00,
2013-10-06 03:10:00,60.1,26.4,30.11,NW,315,1.4,2.3,27,0.00,,,0.00,tws,2013-10-06 10:10:00,
2013-10-06 03:20:00,59.4,26.0,30.10,North,0,1.8,3.1,27,0.00,,,0.00,tws,2013-10-06 10:20:00,
2013-10-06 03:30:00,58.8,26.6,30.12,NW,315,3.3,5.0,28,0.00,,,0.00,tws,2013-10-06 10:30:00,
2013-10-06 03:40:00,58.6,26.8,30.12,NNW,337,3.9,5.0,29,0.00,,,0.00,tws,2013-10-06 10:40:00,
2013-10-06 03:50:00,58.3,26.7,30.12,NW,315,2.0,3.8,29,0.00,,,0.00,tws,2013-10-06 10:50:00,
2013-10-06 04:00:00,58.0,26.6,30.12,West,270,2.3,3.0,29,0.00,,,0.00,tws,2013-10-06 11:00:00,
2013-10-06 04:10:00,57.8,26.4,30.11,NW,315,3.3,4.3,29,0.00,,,0.00,tws,2013-10-06 11:10:00,
2013-10-06 04:20:00,57.7,26.8,30.11,NW,315,3.3,4.2,30,0.00,,,0.00,tws,2013-10-06 11:20:00,
2013-10-06 04:30:00,57.7,27.4,30.12,NW,315,3.7,4.2,31,0.00,,,0.00,tws,2013-10-06 11:30:00,
2013-10-06 04:40:00,57.7,27.0,30.12,NW,315,3.1,4.0,30,0.00,,,0.00,tws,2013-10-06 11:40:00,
2013-10-06 04:50:00,57.5,26.5,30.12,NW,315,4.1,4.4,30,0.00,,,0.00,tws,2013-10-06 11:50:00,
2013-10-06 05:00:00,57.5,25.9,30.13,NW,315,3.7,4.5,29,0.00,,,0.00,tws,2013-10-06 12:00:00,
2013-10-06 05:10:00,57.5,26.0,30.12,NW,315,3.2,4.4,29,0.00,,,0.00,tws,2013-10-06 12:10:00,
2013-10-06 05:20:00,57.5,26.0,30.12,NNW,337,2.0,4.1,29,0.00,,,0.00,tws,2013-10-06 12:20:00,
2013-10-06 05:30:00,57.4,26.3,30.12,NW,315,2.3,4.3,29,0.00,,,0.00,tws,2013-10-06 12:30:00,
2013-10-06 05:40:00,57.1,26.6,30.13,NNW,337,2.7,4.0,30,0.00,,,0.00,tws,2013-10-06 12:40:00,
2013-10-06 05:50:00,56.9,26.8,30.12,NW,315,2.7,4.4,31,0.00,,,0.00,tws,2013-10-06 12:50:00,
2013-10-06 06:00:00,56.6,27.2,30.13,WNW,292,3.7,5.7,32,0.00,,,0.00,tws,2013-10-06 13:00:00,
2013-10-06 06:10:00,56.4,26.7,30.12,NW,315,2.2,3.2,31,0.00,,,0.00,tws,2013-10-06 13:10:00,
2013-10-06 06:20:00,56.0,26.4,30.12,NNW,337,0.5,2.5,31,0.00,,,0.00,tws,2013-10-06 13:20:00,
2013-10-06 06:30:00,55.5,26.4,30.13,NNW,337,0.0,0.0,32,0.00,,,0.00,tws,2013-10-06 13:30:00,
2013-10-06 06:40:00,55.0,26.5,30.12,North,0,1.2,2.1,33,0.00,,,0.00,tws,2013-10-06 13:40:00,
2013-10-06 06:50:00,54.5,26.5,30.13,North,0,1.2,2.6,33,0.00,,,0.00,tws,2013-10-06 13:50:00,
2013-10-06 07:00:00,54.3,26.2,30.15,NW,315,2.9,4.7,33,0.00,,,0.00,tws,2013-10-06 14:00:00,
2013-10-06 07:10:00,54.2,26.4,30.14,NW,315,3.3,4.8,33,0.00,,,0.00,tws,2013-10-06 14:10:00,
2013-10-06 07:20:00,54.4,27.4,30.14,NW,315,4.0,4.7,35,0.00,,,0.00,tws,2013-10-06 14:20:00,
2013-10-06 07:30:00,54.9,27.6,30.15,NW,315,3.7,4.7,34,0.00,,,0.00,tws,2013-10-06 14:30:00,
2013-10-06 07:40:00,55.5,28.8,30.16,NW,315,2.6,4.9,35,0.00,,,0.00,tws,2013-10-06 14:40:00,
2013-10-06 07:50:00,56.5,30.3,30.15,NNW,337,3.2,3.9,36,0.00,,,0.00,tws,2013-10-06 14:50:00,
2013-10-06 08:00:00,57.6,30.6,30.15,NW,315,3.4,4.3,35,0.00,,,0.00,tws,2013-10-06 15:00:00,
2013-10-06 08:10:00,58.8,31.5,30.15,NW,315,3.2,4.2,35,0.00,,,0.00,tws,2013-10-06 15:10:00,
2013-10-06 08:20:00,60.1,32.1,30.16,NNW,337,1.6,3.2,34,0.00,,,0.00,tws,2013-10-06 15:20:00,
2013-10-06 08:30:00,61.6,33.0,30.16,North,0,2.0,2.9,33,0.00,,,0.00,tws,2013-10-06 15:30:00,
2013-10-06 08:40:00,63.3,33.9,30.16,NE,45,0.9,2.1,32,0.00,,,0.00,tws,2013-10-06 15:40:00,
2013-10-06 08:50:00,65.2,34.1,30.16,NNW,337,2.5,3.0,31,0.00,,,0.00,tws,2013-10-06 15:50:00,
2013-10-06 09:00:00,67.3,34.5,30.17,NW,315,2.6,3.3,29,0.00,,,0.00,tws,2013-10-06 16:00:00,
2013-10-06 09:10:00,69.3,35.0,30.17,North,0,2.0,3.3,27,0.00,,,0.00,tws,2013-10-06 16:10:00,
2013-10-06 09:20:00,71.3,34.8,30.17,NE,45,1.2,2.4,25,0.00,,,0.00,tws,2013-10-06 16:20:00,
2013-10-06 09:30:00,73.2,36.4,30.17,NE,45,1.5,3.3,25,0.00,,,0.00,tws,2013-10-06 16:30:00,
2013-10-06 09:40:00,75.1,36.5,30.17,SW,225,1.3,2.3,24,0.00,,,0.00,tws,2013-10-06 16:40:00,
2013-10-06 09:50:00,76.0,34.3,30.18,ENE,67,2.0,3.0,21,0.00,,,0.00,tws,2013-10-06 16:50:00,
2013-10-06 10:00:00,76.9,34.1,30.17,NW,315,1.5,2.8,20,0.00,,,0.00,tws,2013-10-06 17:00:00,
2013-10-06 10:10:00,77.4,35.2,30.18,ENE,67,2.5,3.4,21,0.00,,,0.00,tws,2013-10-06 17:10:00,
2013-10-06 10:20:00,77.9,35.4,30.17,South,180,1.9,3.0,21,0.00,,,0.00,tws,2013-10-06 17:20:00,
2013-10-06 10:30:00,78.6,35.7,30.17,NW,315,1.6,2.1,20,0.00,,,0.00,tws,2013-10-06 17:30:00,
2013-10-06 10:40:00,78.8,34.5,30.17,South,180,1.4,2.8,19,0.00,,,0.00,tws,2013-10-06 17:40:00,
2013-10-06 10:50:00,78.9,33.9,30.17,SE,135,2.4,3.4,19,0.00,,,0.00,tws,2013-10-06 17:50:00,
2013-10-06 11:00:00,79.3,35.3,30.17,NE,45,2.8,3.6,20,0.00,,,0.00,tws,2013-10-06 18:00:00,
2013-10-06 11:10:00,79.5,33.3,30.16,South,180,2.3,3.9,18,0.00,,,0.00,tws,2013-10-06 18:10:00,
2013-10-06 11:20:00,79.4,32.7,30.15,SSE,157,1.9,3.3,18,0.00,,,0.00,tws,2013-10-06 18:20:00,
2013-10-06 11:30:00,79.6,32.8,30.15,East,90,3.3,4.5,18,0.00,,,0.00,tws,2013-10-06 18:30:00,
2013-10-06 11:40:00,80.0,33.4,30.15,SE,135,2.0,2.9,18,0.00,,,0.00,tws,2013-10-06 18:40:00,
2013-10-06 11:50:00,80.9,34.3,30.12,ESE,112,2.5,3.2,18,0.00,,,0.00,tws,2013-10-06 18:50:00,
2013-10-06 12:00:00,81.8,32.8,30.12,NNW,337,3.8,5.7,16,0.00,,,0.00,tws,2013-10-06 19:00:00,
2013-10-06 12:10:00,82.0,32.4,30.12,SW,225,3.5,5.0,16,0.00,,,0.00,tws,2013-10-06 19:10:00,
2013-10-06 12:30:00,82.3,32.8,30.11,NW,315,4.6,7.6,16,0.00,,,0.00,tws,2013-10-06 19:30:00,
2013-10-06 12:40:00,82.4,32.9,30.11,SE,135,3.2,5.8,16,0.00,,,0.00,tws,2013-10-06 19:40:00,
2013-10-06 12:50:00,82.7,33.9,30.11,East,90,2.9,4.1,16,0.00,,,0.00,tws,2013-10-06 19:50:00,
2013-10-06 13:00:00,83.3,34.8,30.11,SSE,157,3.5,5.0,17,0.00,,,0.00,tws,2013-10-06 20:00:00,
2013-10-06 13:10:00,84.0,34.3,30.10,SW,225,3.9,6.1,16,0.00,,,0.00,tws,2013-10-06 20:10:00,
2013-10-06 13:20:00,84.0,33.9,30.10,South,180,3.3,5.2,16,0.00,,,0.00,tws,2013-10-06 20:20:00,
2013-10-06 13:30:00,84.3,34.2,30.08,ENE,67,3.0,4.2,16,0.00,,,0.00,tws,2013-10-06 20:30:00,
2013-10-06 13:40:00,84.5,33.9,30.07,SE,135,4.9,6.8,15,0.00,,,0.00,tws,2013-10-06 20:40:00,
2013-10-06 13:50:00,85.0,33.5,30.07,South,180,5.0,7.3,15,0.00,,,0.00,tws,2013-10-06 20:50:00,
2013-10-06 14:00:00,85.4,33.9,30.06,SE,135,3.0,4.7,15,0.00,,,0.00,tws,2013-10-06 21:00:00,
2013-10-06 14:10:00,85.8,33.5,30.07,South,180,4.6,6.5,15,0.00,,,0.00,tws,2013-10-06 21:10:00,
2013-10-06 14:20:00,86.1,33.4,30.08,South,180,4.4,7.5,14,0.00,,,0.00,tws,2013-10-06 21:20:00,
2013-10-06 14:30:00,86.3,34.1,30.07,SE,135,4.5,6.7,15,0.00,,,0.00,tws,2013-10-06 21:30:00,
2013-10-06 14:40:00,86.8,34.5,30.07,SW,225,4.7,6.9,15,0.00,,,0.00,tws,2013-10-06 21:40:00,
2013-10-06 14:50:00,87.2,34.0,30.08,SW,225,3.3,5.7,14,0.00,,,0.00,tws,2013-10-06 21:50:00,
2013-10-06 15:00:00,87.5,34.3,30.07,South,180,3.6,5.6,14,0.00,,,0.00,tws,2013-10-06 22:00:00,
2013-10-06 15:10:00,87.7,35.1,30.08,NW,315,4.0,6.5,15,0.00,,,0.00,tws,2013-10-06 22:10:00,
2013-10-06 15:20:00,87.9,34.6,30.07,SW,225,5.5,6.8,14,0.00,,,0.00,tws,2013-10-06 22:20:00,
2013-10-06 15:30:00,87.7,33.6,30.06,SE,135,2.9,4.3,14,0.00,,,0.00,tws,2013-10-06 22:30:00,
2013-10-06 15:40:00,88.1,35.0,30.04,East,90,1.7,2.8,14,0.00,,,0.00,tws,2013-10-06 22:40:00,
2013-10-06 15:50:00,88.5,35.9,30.04,SSE,157,1.9,5.1,15,0.00,,,0.00,tws,2013-10-06 22:50:00,
2013-10-06 16:00:00,88.8,34.7,30.05,SSE,157,4.7,6.6,14,0.00,,,0.00,tws,2013-10-06 23:00:00,
2013-10-06 16:10:00,88.7,33.9,30.05,SW,225,3.5,4.8,13,0.00,,,0.00,tws,2013-10-06 23:10:00,
2013-10-06 16:20:00,88.5,33.7,30.05,NW,315,2.6,5.1,13,0.00,,,0.00,tws,2013-10-06 23:20:00,
2013-10-06 16:30:00,87.9,33.3,30.06,South,180,3.3,4.5,13,0.00,,,0.00,tws,2013-10-06 23:30:00,
2013-10-06 16:40:00,87.1,32.7,30.05,SE,135,2.1,3.8,14,0.00,,,0.00,tws,2013-10-06 23:40:00,
2013-10-06 16:50:00,86.5,33.1,30.06,NW,315,2.3,3.9,14,0.00,,,0.00,tws,2013-10-06 23:50:00,
2013-10-06 17:00:00,86.1,34.6,30.04,SW,225,1.3,2.5,15,0.00,,,0.00,tws,2013-10-07 00:00:00,
2013-10-06 17:10:00,85.5,33.7,30.03,SW,225,2.2,3.6,15,0.00,,,0.00,tws,2013-10-07 00:10:00,
2013-10-06 17:20:00,85.0,32.6,30.03,SW,225,2.6,4.1,14,0.00,,,0.00,tws,2013-10-07 00:20:00,
2013-10-06 17:30:00,84.5,33.8,30.03,SW,225,1.8,2.5,15,0.00,,,0.00,tws,2013-10-07 00:30:00,
2013-10-06 17:40:00,84.0,32.7,30.03,South,180,3.6,4.5,15,0.00,,,0.00,tws,2013-10-07 00:40:00,
2013-10-06 17:50:00,83.5,31.8,30.02,SSW,202,4.9,6.4,15,0.00,,,0.00,tws,2013-10-07 00:50:00,
2013-10-06 18:00:00,82.9,31.3,30.03,SW,225,3.9,4.6,15,0.00,,,0.00,tws,2013-10-07 01:00:00,
2013-10-06 18:10:00,82.4,30.5,30.03,South,180,4.3,4.7,14,0.00,,,0.00,tws,2013-10-07 01:10:00,
2013-10-06 18:20:00,81.6,30.6,30.03,SW,225,3.8,5.4,15,0.00,,,0.00,tws,2013-10-07 01:20:00,
2013-10-06 18:30:00,80.9,30.0,30.04,SW,225,4.4,5.3,15,0.00,,,0.00,tws,2013-10-07 01:30:00,
2013-10-06 18:40:00,80.1,30.1,30.03,SW,225,3.2,4.5,15,0.00,,,0.00,tws,2013-10-07 01:40:00,
2013-10-06 18:50:00,79.4,29.6,30.03,SW,225,2.4,2.7,15,0.00,,,0.00,tws,2013-10-07 01:50:00,
2013-10-06 19:00:00,78.8,31.2,30.03,WSW,247,1.7,2.6,17,0.00,,,0.00,tws,2013-10-07 02:00:00,
2013-10-06 19:10:00,77.7,32.7,30.03,NW,315,2.1,2.6,19,0.00,,,0.00,tws,2013-10-07 02:10:00,
2013-10-06 19:20:00,76.4,32.4,30.04,NW,315,3.6,4.5,19,0.00,,,0.00,tws,2013-10-07 02:20:00,
2013-10-06 19:30:00,75.5,31.4,30.05,NNW,337,2.7,3.3,19,0.00,,,0.00,tws,2013-10-07 02:30:00,
2013-10-06 19:40:00,74.8,31.9,30.05,NW,315,2.8,3.0,20,0.00,,,0.00,tws,2013-10-07 02:40:00,
2013-10-06 19:50:00,74.1,33.0,30.05,NW,315,2.8,3.0,21,0.00,,,0.00,tws,2013-10-07 02:50:00,
2013-10-06 20:00:00,73.5,32.3,30.05,NW,315,3.4,3.8,21,0.00,,,0.00,tws,2013-10-07 03:00:00,
2013-10-06 20:10:00,73.1,30.9,30.05,West,270,3.0,3.5,20,0.00,,,0.00,tws,2013-10-07 03:10:00,
2013-10-06 20:20:00,72.8,30.7,30.05,NW,315,3.0,3.4,20,0.00,,,0.00,tws,2013-10-07 03:20:00,
2013-10-06 20:30:00,72.5,30.6,30.06,NW,315,3.4,4.2,20,0.00,,,0.00,tws,2013-10-07 03:30:00,
2013-10-06 20:40:00,72.1,30.1,30.05,West,270,3.4,4.6,20,0.00,,,0.00,tws,2013-10-07 03:40:00,
2013-10-06 20:50:00,71.8,29.1,30.06,NW,315,3.7,4.7,20,0.00,,,0.00,tws,2013-10-07 03:50:00,
2013-10-06 21:00:00,71.8,29.1,30.06,NW,315,3.6,4.3,20,0.00,,,0.00,tws,2013-10-07 04:00:00,
2013-10-06 21:10:00,71.7,28.5,30.05,NNW,337,3.6,4.2,19,0.00,,,0.00,tws,2013-10-07 04:10:00,
2013-10-06 21:20:00,71.5,28.6,30.06,NW,315,3.6,4.7,20,0.00,,,0.00,tws,2013-10-07 04:20:00,
2013-10-06 21:30:00,71.1,29.3,30.06,NW,315,2.9,3.4,20,0.00,,,0.00,tws,2013-10-07 04:30:00,
2013-10-06 21:40:00,70.6,29.7,30.07,NW,315,3.6,4.4,21,0.00,,,0.00,tws,2013-10-07 04:40:00,
2013-10-06 21:50:00,69.9,29.4,30.07,NW,315,2.4,2.9,21,0.00,,,0.00,tws,2013-10-07 04:50:00,
2013-10-06 22:00:00,69.3,29.1,30.07,NW,315,3.6,4.8,21,0.00,,,0.00,tws,2013-10-07 05:00:00,
2013-10-06 22:10:00,68.8,28.8,30.07,NW,315,3.4,4.3,22,0.00,,,0.00,tws,2013-10-07 05:10:00,
2013-10-06 22:20:00,68.5,28.9,30.06,NW,315,2.8,4.4,22,0.00,,,0.00,tws,2013-10-07 05:20:00,
2013-10-06 22:30:00,68.1,29.2,30.07,NW,315,3.6,4.4,23,0.00,,,0.00,tws,2013-10-07 05:30:00,
2013-10-06 22:40:00,67.7,28.9,30.07,NW,315,3.4,4.8,23,0.00,,,0.00,tws,2013-10-07 05:40:00,
2013-10-06 22:50:00,67.3,27.6,30.07,NW,315,4.5,5.2,22,0.00,,,0.00,tws,2013-10-07 05:50:00,
2013-10-06 23:00:00,67.2,27.8,30.06,NW,315,4.3,4.7,22,0.00,,,0.00,tws,2013-10-07 06:00:00,
2013-10-06 23:10:00,67.1,27.0,30.06,NW,315,4.0,4.8,21,0.00,,,0.00,tws,2013-10-07 06:10:00,
2013-10-06 23:20:00,67.2,25.9,30.05,NW,315,4.4,5.0,20,0.00,,,0.00,tws,2013-10-07 06:20:00,
2013-10-06 23:30:00,67.3,26.2,30.06,NW,315,3.8,4.3,20,0.00,,,0.00,tws,2013-10-07 06:30:00,
2013-10-06 23:40:00,67.3,26.3,30.06,NW,315,4.0,4.7,21,0.00,,,0.00,tws,2013-10-07 06:40:00,
2013-10-06 23:50:00,66.9,26.3,30.05,NW,315,3.6,4.4,21,0.00,,,0.00,tws,2013-10-07 06:50:00,